Date String (YYYY-MM-DD hh:mm:ss) UTC,Instrument flags,Ambient pressure (hPa),Sample flow (lpm),Bypass flow (lpm),Sample temperature (°C),Ambient temperature (°C),ASC tube jacket temperature (°C),LED temperature (°C),Box temperature (°C),Sample RH (%),Span deviation,Mass concentration (μg/m³),Mass concentration (μg/m³),Mass concentration (μg/m³)
DateTimeUTC,F1_M11,P_M11,Q1_M11,Q2_M11,T1_M11,T2_M11,T3_M11,T4_M11,T5_M11,U1_M11,ZSPAN_M11,X2_M11,X0_M11,X1_M11
2023-01-15 16:00:00,,0810.8,4.99,0.00,22.3,21.0,00.0,31.2,24.1,15.3,0000.0,0002.73,0007.37,0001.99
2023-01-15 16:01:00,,0810.8,5.01,0.00,22.3,21.0,00.0,31.2,24.1,15.1,0000.0,0002.89,0007.83,0002.04
2023-01-15 16:02:00,,0810.9,4.99,0.00,22.3,21.0,00.0,31.2,24.1,14.8,0000.0,0003.13,0008.19,0002.05
2023-01-15 16:03:00,,0810.8,5.00,0.00,22.3,21.1,00.0,31.2,24.2,14.7,0000.0,0003.21,0008.95,0002.06
2023-01-15 16:04:00,,0810.8,5.00,0.00,22.3,21.1,00.0,31.2,24.2,14.7,0000.0,0003.30,0009.56,0002.06
2023-01-15 16:05:00,,0810.8,4.99,0.00,22.4,21.0,00.0,31.2,24.2,14.9,0000.0,0003.40,0011.25,0002.07
2023-01-15 16:06:00,,0810.8,5.00,0.00,22.3,20.9,00.0,31.2,24.1,15.0,0000.0,0003.44,0011.50,0002.07
2023-01-15 16:07:00,,0810.9,5.01,0.00,22.3,20.9,00.0,31.2,24.1,15.0,0000.0,0003.52,0011.83,0002.09
2023-01-15 16:08:00,,0810.8,5.01,0.00,22.3,21.0,00.0,31.2,24.1,14.6,0000.0,0003.58,0012.55,0002.07
2023-01-15 16:09:00,,0810.9,5.00,0.00,22.3,21.0,00.0,31.2,24.2,14.5,0000.0,0003.70,0014.35,0002.07
2023-01-15 16:10:00,,0810.9,5.00,0.00,22.4,21.2,00.0,31.2,24.2,14.4,0000.0,0003.75,0014.62,0002.04
2023-01-15 16:11:00,,0810.9,5.00,0.00,22.4,21.9,00.0,31.2,24.4,14.5,0000.0,0003.81,0014.85,0002.05
2023-01-15 16:12:00,,0810.9,5.00,0.00,22.5,22.7,00.0,31.2,24.6,14.6,0000.0,0003.83,0015.89,0002.07
2023-01-15 16:13:00,,0810.9,4.99,0.00,22.6,22.7,00.0,31.2,24.7,14.7,0000.0,0003.81,0015.99,0002.08
2023-01-15 16:14:00,,0810.8,4.99,0.00,22.6,22.4,00.0,31.3,24.6,14.7,0000.0,0003.84,0016.01,0002.12
2023-01-15 16:15:00,,0810.9,5.01,0.00,22.7,22.2,00.0,31.3,24.6,14.6,0000.0,0003.88,0016.77,0002.15
2023-01-15 16:16:00,,0810.8,4.99,0.00,22.7,22.0,00.0,31.3,24.6,14.6,0000.0,0003.86,0015.82,0002.17
2023-01-15 16:17:00,,0810.8,5.01,0.00,22.7,21.9,00.0,31.4,24.6,14.6,0000.0,0003.89,0014.88,0002.20
2023-01-15 16:18:00,,0810.9,5.00,0.00,22.7,21.8,00.0,31.4,24.6,14.6,0000.0,0003.94,0015.58,0002.21
2023-01-15 16:19:00,,0810.9,5.00,0.00,22.7,21.8,00.0,31.4,24.6,14.7,0000.0,0003.93,0015.59,0002.23
2023-01-15 16:20:00,,0810.9,5.01,0.00,22.7,21.7,00.0,31.4,24.6,14.5,0000.0,0003.90,0014.02,0002.23
2023-01-15 16:21:00,,0810.9,5.01,0.00,22.7,21.7,00.0,31.4,24.6,14.4,0000.0,0003.90,0014.94,0002.24
2023-01-15 16:22:00,,0810.9,5.00,0.00,22.7,21.7,00.0,31.5,24.6,14.4,0000.0,0003.92,0015.04,0002.23
2023-01-15 16:23:00,,0811.0,4.99,0.00,22.7,21.7,00.0,31.5,24.6,14.3,0000.0,0003.92,0014.11,0002.22
2023-01-15 16:24:00,,0810.9,5.00,0.00,22.7,21.6,00.0,31.5,24.6,15.0,0000.0,0003.86,0014.82,0002.19
2023-01-15 16:25:00,,0811.0,4.97,0.00,22.7,21.5,00.0,31.5,24.5,15.4,0000.0,0003.84,0014.79,0002.19
2023-01-15 16:26:00,,0810.9,5.00,0.00,22.7,21.2,00.0,31.5,24.4,15.4,0000.0,0003.82,0014.34,0002.21
2023-01-15 16:27:00,,0810.9,5.00,0.00,22.6,21.1,00.0,31.5,24.3,15.4,0000.0,0003.79,0014.05,0002.30
2023-01-15 16:28:00,,0810.9,5.01,0.00,22.6,21.0,00.0,31.5,24.3,15.3,0000.0,0003.83,0013.77,0002.44
2023-01-15 16:29:00,,0811.0,5.00,0.00,22.6,21.1,00.0,31.5,24.4,15.5,0000.0,0003.84,0013.94,0002.57
2023-01-15 16:30:00,,0811.0,4.99,0.00,22.6,21.1,00.0,31.5,24.3,15.4,0000.0,0003.82,0013.23,0002.71
2023-01-15 16:31:00,,0811.0,4.98,0.00,22.6,21.0,00.0,31.5,24.3,15.4,0000.0,0003.88,0012.93,0002.82
2023-01-15 16:32:00,,0811.0,5.01,0.00,22.6,21.0,00.0,31.5,24.3,15.0,0000.0,0003.91,0013.21,0002.91
2023-01-15 16:33:00,,0811.0,5.01,0.00,22.6,21.0,00.0,31.5,24.3,15.1,0000.0,0003.96,0012.96,0002.99
2023-01-15 16:34:00,,0811.0,5.00,0.00,22.5,20.9,00.0,31.5,24.3,15.3,0000.0,0004.02,0013.20,0003.08
2023-01-15 16:35:00,,0810.9,5.01,0.00,22.5,20.8,00.0,31.4,24.2,15.8,0000.0,0004.06,0012.83,0003.17
2023-01-15 16:36:00,,0810.9,4.99,0.00,22.4,20.6,00.0,31.4,24.1,15.8,0000.0,0004.11,0011.58,0003.26
2023-01-15 16:37:00,,0810.9,5.00,0.00,22.4,20.5,00.0,31.4,24.0,15.3,0000.0,0004.18,0011.67,0003.33
2023-01-15 16:38:00,,0810.9,5.00,0.00,22.3,20.3,00.0,31.4,23.9,15.2,0000.0,0004.24,0012.76,0003.33
2023-01-15 16:39:00,,0810.8,5.00,0.00,22.3,20.3,00.0,31.4,23.8,15.5,0000.0,0004.26,0013.43,0003.31
2023-01-15 16:40:00,,0810.9,5.00,0.00,22.2,20.2,00.0,31.3,23.8,15.6,0000.0,0004.25,0013.08,0003.30
2023-01-15 16:41:00,,0810.9,5.00,0.00,22.2,20.2,00.0,31.3,23.8,15.6,0000.0,0004.29,0013.07,0003.29
2023-01-15 16:42:00,,0810.8,5.01,0.00,22.2,20.3,00.0,31.3,23.8,15.6,0000.0,0004.25,0012.62,0003.30
2023-01-15 16:43:00,,0810.9,5.01,0.00,22.2,20.5,00.0,31.3,23.9,15.7,0000.0,0004.23,0012.98,0003.34
2023-01-15 16:44:00,,0810.9,4.99,0.00,22.2,20.6,00.0,31.2,23.9,15.6,0000.0,0004.19,0012.78,0003.37
2023-01-15 16:45:00,,0810.9,4.99,0.00,22.2,20.7,00.0,31.2,23.9,15.6,0000.0,0004.12,0012.30,0003.40
2023-01-15 16:46:00,,0810.9,5.00,0.00,22.2,20.8,00.0,31.2,23.9,15.5,0000.0,0004.08,0012.18,0003.40
2023-01-15 16:47:00,,0810.8,5.01,0.00,22.2,20.8,00.0,31.2,23.9,15.4,0000.0,0004.07,0012.18,0003.39
2023-01-15 16:48:00,,0810.9,5.00,0.00,22.2,20.8,00.0,31.2,24.0,15.0,0000.0,0004.01,0012.35,0003.36
2023-01-15 16:49:00,,0810.9,5.01,0.00,22.2,20.9,00.0,31.2,24.0,15.2,0000.0,0003.93,0010.69,0003.35
2023-01-15 16:50:00,,0810.9,5.00,0.00,22.2,20.9,00.0,31.2,24.0,15.6,0000.0,0003.88,0009.89,0003.35
2023-01-15 16:51:00,,0810.9,5.00,0.00,22.2,21.0,00.0,31.2,24.0,15.5,0000.0,0003.87,0009.85,0003.33
2023-01-15 16:52:00,,0810.9,5.00,0.00,22.2,21.0,00.0,31.2,24.0,15.6,0000.0,0003.78,0009.55,0003.31
2023-01-15 16:53:00,,0810.8,5.01,0.00,22.2,21.0,00.0,31.1,24.0,15.7,0000.0,0003.76,0009.73,0003.27
2023-01-15 16:54:00,,0810.9,4.99,0.00,22.2,21.0,00.0,31.1,24.0,15.5,0000.0,0003.72,0009.43,0003.23
2023-01-15 16:55:00,,0810.8,4.99,0.00,22.3,21.0,00.0,31.2,24.0,15.7,0000.0,0003.65,0008.65,0003.19
2023-01-15 16:56:00,,0810.8,4.99,0.00,22.3,21.0,00.0,31.2,24.0,15.6,0000.0,0003.59,0008.41,0003.15
2023-01-15 16:57:00,,0810.8,5.00,0.00,22.3,21.0,00.0,31.1,24.0,15.6,0000.0,0003.53,0008.40,0003.11
2023-01-15 16:58:00,,0810.7,5.01,0.00,22.3,21.0,00.0,31.1,24.0,15.4,0000.0,0003.49,0008.84,0003.06
2023-01-15 16:59:00,,0810.7,5.01,0.00,22.3,21.0,00.0,31.1,24.0,15.3,0000.0,0003.42,0008.98,0003.01
